WZZ98QU EKCH-EPWA

Flight info

Callsign WZZ98QU
Flight time 1h 7m
Altitude 35000
Route SIMEG Z491 TELMO DCT POKEN DCT NASOK N195 SORIX
Aircraft A21N/M-SDE1E2E3FGIJ1J4RWXY/LB1

Departure

Time 2026-04-24 19:41
Airport Copenhagen Kastrup Airport (EKCH)

Arrival

Time 2026-04-24 20:48
Airport Warsaw Chopin Airport (EPWA)
Time Latitude Longitude Altitude Speed Heading
2026-04-24 19:02 55.62519 12.65762 18 ft 0 kts
2026-04-24 19:26 55.62507 12.65762 19 ft 2 kts 360°
2026-04-24 19:27 55.62492 12.65762 18 ft 2 kts
2026-04-24 19:27 55.62477 12.65762 18 ft 2 kts
2026-04-24 19:27 55.62467 12.65762 18 ft 1 kts
2026-04-24 19:27 55.62453 12.65768 18 ft 2 kts 319°
2026-04-24 19:28 55.62444 12.65791 17 ft 2 kts 281°
2026-04-24 19:28 55.62444 12.65803 17 ft 1 kts 262°
2026-04-24 19:28 55.62444 12.65811 17 ft 0 kts 269°
2026-04-24 19:32 55.62444 12.65810 17 ft 0 kts 269°
2026-04-24 19:32 55.62444 12.65785 17 ft 4 kts 269°
2026-04-24 19:33 55.62443 12.65699 18 ft 6 kts 269°
2026-04-24 19:33 55.62442 12.65623 19 ft 6 kts 269°
2026-04-24 19:33 55.62441 12.65527 18 ft 9 kts 269°
2026-04-24 19:33 55.62439 12.65396 19 ft 12 kts 269°
2026-04-24 19:34 55.62433 12.65244 18 ft 12 kts 243°
2026-04-24 19:34 55.62357 12.65205 18 ft 12 kts 176°
2026-04-24 19:34 55.62265 12.65199 17 ft 14 kts 180°
2026-04-24 19:34 55.62163 12.65128 15 ft 17 kts 214°
2026-04-24 19:35 55.62058 12.65006 15 ft 19 kts 213°
2026-04-24 19:35 55.61944 12.64876 15 ft 19 kts 213°
2026-04-24 19:35 55.61833 12.64747 15 ft 19 kts 213°
2026-04-24 19:35 55.61708 12.64603 15 ft 23 kts 213°
2026-04-24 19:36 55.61561 12.64435 15 ft 24 kts 213°
2026-04-24 19:36 55.61421 12.64274 16 ft 23 kts 213°
2026-04-24 19:36 55.61287 12.64120 16 ft 22 kts 213°
2026-04-24 19:36 55.61161 12.63974 16 ft 21 kts 213°
2026-04-24 19:37 55.61035 12.63830 16 ft 22 kts 213°
2026-04-24 19:37 55.60905 12.63681 17 ft 22 kts 214°
2026-04-24 19:37 55.60776 12.63532 15 ft 22 kts 213°
2026-04-24 19:37 55.60650 12.63383 15 ft 21 kts 216°
2026-04-24 19:38 55.60537 12.63210 14 ft 20 kts 221°
2026-04-24 19:38 55.60432 12.63115 14 ft 15 kts 164°
2026-04-24 19:38 55.60400 12.63154 13 ft 0 kts 133°
2026-04-24 19:39 55.60396 12.63161 13 ft 1 kts 133°
2026-04-24 19:39 55.60376 12.63200 13 ft 7 kts 133°
2026-04-24 19:39 55.60342 12.63332 12 ft 15 kts 73°
2026-04-24 19:40 55.60408 12.63456 12 ft 15 kts 42°
2026-04-24 19:40 55.60610 12.63765 15 ft 72 kts 41°
2026-04-24 19:40 55.61163 12.64612 16 ft 135 kts 40°
2026-04-24 19:40 55.61990 12.65868 126 ft 173 kts 39°
2026-04-24 19:41 55.62900 12.67285 663 ft 180 kts 39°
2026-04-24 19:41 55.63850 12.68754 1301 ft 184 kts 37°
2026-04-24 19:41 55.64799 12.70242 1986 ft 183 kts 38°
2026-04-24 19:41 55.65699 12.71809 2505 ft 186 kts 46°
2026-04-24 19:42 55.66145 12.74034 2771 ft 210 kts 91°
2026-04-24 19:42 55.65548 12.76446 3022 ft 228 kts 130°
2026-04-24 19:42 55.64343 12.78454 3304 ft 248 kts 140°
2026-04-24 19:42 55.62983 12.80503 3638 ft 266 kts 139°
2026-04-24 19:43 55.61578 12.82750 4096 ft 280 kts 137°
2026-04-24 19:43 55.60177 12.85145 4799 ft 285 kts 135°
2026-04-24 19:43 55.58786 12.87629 5542 ft 288 kts 134°
2026-04-24 19:43 55.57388 12.90183 6260 ft 293 kts 133°
2026-04-24 19:44 55.55981 12.92788 6967 ft 297 kts 133°
2026-04-24 19:44 55.54567 12.95419 7668 ft 302 kts 133°
2026-04-24 19:44 55.53109 12.98139 8376 ft 308 kts 133°
2026-04-24 19:44 55.51641 13.00880 9064 ft 313 kts 132°
2026-04-24 19:45 55.50140 13.03680 9702 ft 318 kts 132°
2026-04-24 19:45 55.48603 13.06547 10334 ft 324 kts 132°
2026-04-24 19:45 55.47033 13.09474 10683 ft 340 kts 132°
2026-04-24 19:45 55.45383 13.12546 11105 ft 351 kts 133°
2026-04-24 19:46 55.43702 13.15669 11681 ft 356 kts 133°
2026-04-24 19:46 55.41994 13.18834 12334 ft 360 kts 133°
2026-04-24 19:46 55.40262 13.22039 12892 ft 365 kts 133°
2026-04-24 19:46 55.38530 13.25244 13438 ft 369 kts 133°
2026-04-24 19:47 55.36756 13.28519 14018 ft 373 kts 133°
2026-04-24 19:47 55.34951 13.31846 14623 ft 378 kts 133°
2026-04-24 19:47 55.33134 13.35193 15181 ft 382 kts 133°
2026-04-24 19:47 55.31294 13.38578 15710 ft 386 kts 133°
2026-04-24 19:48 55.29458 13.41943 16297 ft 388 kts 133°
2026-04-24 19:48 55.27589 13.45370 16844 ft 391 kts 133°
2026-04-24 19:48 55.24145 13.52795 17860 ft 397 kts 120°
2026-04-24 19:49 55.21433 13.61219 18877 ft 401 kts 116°
2026-04-24 19:49 55.18783 13.69805 19804 ft 407 kts 117°
2026-04-24 19:50 55.14654 13.82908 21128 ft 416 kts 117°
2026-04-24 19:50 55.13252 13.87316 21549 ft 419 kts 117°
2026-04-24 19:51 55.10406 13.96246 22379 ft 425 kts 117°
2026-04-24 19:51 55.08950 14.00794 22798 ft 427 kts 117°
2026-04-24 19:52 55.05988 14.09740 23583 ft 433 kts 121°
2026-04-24 19:52 55.04224 14.14012 23952 ft 437 kts 128°
2026-04-24 19:52 55.02232 14.18038 24350 ft 439 kts 131°
2026-04-24 19:52 55.00189 14.21925 24733 ft 442 kts 132°
2026-04-24 19:53 54.98084 14.25888 25119 ft 444 kts 132°
2026-04-24 19:53 54.96066 14.29939 25464 ft 446 kts 125°
2026-04-24 19:53 54.92750 14.38986 26188 ft 450 kts 119°
2026-04-24 19:54 54.91126 14.43655 26509 ft 453 kts 120°
2026-04-24 19:54 54.89481 14.48294 26847 ft 456 kts 120°
2026-04-24 19:54 54.87786 14.52988 27165 ft 458 kts 121°
2026-04-24 19:54 54.86097 14.57603 27583 ft 458 kts 121°
2026-04-24 19:55 54.84945 14.60726 27873 ft 457 kts 121°
2026-04-24 19:55 54.82663 14.66876 28337 ft 459 kts 122°
2026-04-24 19:55 54.80931 14.71528 28613 ft 462 kts 122°
2026-04-24 19:55 54.79185 14.76204 28909 ft 464 kts 122°
2026-04-24 19:56 54.77434 14.80883 29201 ft 467 kts 122°
2026-04-24 19:56 54.75678 14.85567 29478 ft 469 kts 122°
2026-04-24 19:56 54.73888 14.90334 29738 ft 472 kts 122°
2026-04-24 19:56 54.72108 14.95057 29940 ft 475 kts 122°
2026-04-24 19:57 54.70306 14.99833 29942 ft 475 kts 122°
2026-04-24 19:57 54.66699 15.09365 29946 ft 474 kts 122°
2026-04-24 19:58 54.63112 15.18812 29946 ft 473 kts 122°
2026-04-24 19:58 54.59525 15.28223 29954 ft 473 kts 123°
2026-04-24 19:59 54.55915 15.37657 29952 ft 473 kts 122°
2026-04-24 19:59 54.52278 15.47126 29956 ft 474 kts 122°
2026-04-24 20:00 54.48662 15.56507 29958 ft 474 kts 123°
2026-04-24 20:00 54.45031 15.65889 29956 ft 474 kts 123°
2026-04-24 20:01 54.41381 15.75285 29950 ft 474 kts 123°
2026-04-24 20:01 54.37732 15.84638 29953 ft 475 kts 123°
2026-04-24 20:02 54.34680 15.92440 29950 ft 475 kts 123°
2026-04-24 20:02 54.30392 16.03364 29950 ft 474 kts 123°
2026-04-24 20:03 54.26719 16.12673 29951 ft 475 kts 123°
2026-04-24 20:03 54.23026 16.22001 29952 ft 475 kts 123°
2026-04-24 20:04 54.19326 16.31313 29952 ft 475 kts 123°
2026-04-24 20:04 54.15629 16.40587 29953 ft 475 kts 123°
2026-04-24 20:05 54.11939 16.49808 29956 ft 474 kts 123°
2026-04-24 20:05 54.08225 16.59054 29952 ft 475 kts 124°
2026-04-24 20:06 54.04484 16.68331 30010 ft 478 kts 124°
2026-04-24 20:06 54.02597 16.73001 30329 ft 479 kts 124°
2026-04-24 20:06 54.00726 16.77615 30682 ft 480 kts 124°
2026-04-24 20:06 53.98822 16.82304 30990 ft 481 kts 124°
2026-04-24 20:07 53.97565 16.85394 31171 ft 482 kts 124°
2026-04-24 20:07 53.95041 16.91597 31508 ft 485 kts 125°
2026-04-24 20:07 53.93102 16.96340 31761 ft 488 kts 124°
2026-04-24 20:07 53.91188 17.01018 32007 ft 490 kts 124°
2026-04-24 20:08 53.89237 17.05783 32255 ft 492 kts 124°
2026-04-24 20:08 53.87283 17.10547 32504 ft 493 kts 124°
2026-04-24 20:08 53.85350 17.15248 32743 ft 495 kts 124°
2026-04-24 20:08 53.83384 17.20023 32973 ft 496 kts 125°
2026-04-24 20:09 53.81391 17.24852 33201 ft 498 kts 125°
2026-04-24 20:09 53.79414 17.29626 33419 ft 500 kts 125°
2026-04-24 20:09 53.77432 17.34408 33632 ft 501 kts 125°
2026-04-24 20:09 53.75445 17.39192 33867 ft 502 kts 125°
2026-04-24 20:10 53.73437 17.44022 34126 ft 502 kts 124°
2026-04-24 20:10 53.71443 17.48802 34372 ft 503 kts 124°
2026-04-24 20:10 53.69422 17.53644 34580 ft 504 kts 124°
2026-04-24 20:10 53.67410 17.58451 34767 ft 505 kts 124°
2026-04-24 20:11 53.65400 17.63246 34937 ft 506 kts 124°
2026-04-24 20:11 53.61357 17.72870 34954 ft 506 kts 126°
2026-04-24 20:12 53.57292 17.82502 34955 ft 506 kts 126°
2026-04-24 20:12 53.53225 17.92099 34955 ft 506 kts 126°
2026-04-24 20:13 53.49162 18.01653 34954 ft 506 kts 125°
2026-04-24 20:13 53.45074 18.11235 34959 ft 506 kts 126°
2026-04-24 20:14 53.40980 18.20788 34959 ft 506 kts 125°
2026-04-24 20:14 53.36900 18.30275 34962 ft 505 kts 126°
2026-04-24 20:14 53.34848 18.35032 34843 ft 506 kts 126°
2026-04-24 20:15 53.32785 18.39802 34610 ft 505 kts 125°
2026-04-24 20:15 53.30747 18.44511 34367 ft 503 kts 125°
2026-04-24 20:15 53.28690 18.49251 34110 ft 500 kts 125°
2026-04-24 20:15 53.26680 18.53882 33858 ft 497 kts 125°
2026-04-24 20:16 53.24650 18.58547 33576 ft 497 kts 125°
2026-04-24 20:16 53.22613 18.63215 33168 ft 497 kts 125°
2026-04-24 20:16 53.20590 18.67846 32662 ft 495 kts 126°
2026-04-24 20:16 53.18598 18.72394 32293 ft 489 kts 126°
2026-04-24 20:17 53.16596 18.76960 31875 ft 486 kts 126°
2026-04-24 20:17 53.12646 18.85943 31002 ft 479 kts 126°
2026-04-24 20:17 53.10692 18.90379 30559 ft 475 kts 126°
2026-04-24 20:18 53.09406 18.93292 30258 ft 473 kts 126°
2026-04-24 20:18 53.06819 18.99140 29662 ft 468 kts 126°
2026-04-24 20:18 53.04901 19.03470 29222 ft 464 kts 126°
2026-04-24 20:18 53.03003 19.07743 28803 ft 460 kts 126°
2026-04-24 20:19 53.01135 19.11942 28380 ft 456 kts 126°
2026-04-24 20:19 52.99252 19.16171 27954 ft 453 kts 126°
2026-04-24 20:19 52.97392 19.20337 27542 ft 449 kts 126°
2026-04-24 20:19 52.95560 19.24438 27118 ft 446 kts 126°
2026-04-24 20:20 52.93725 19.28543 26697 ft 442 kts 126°
2026-04-24 20:20 52.91906 19.32605 26268 ft 439 kts 126°
2026-04-24 20:20 52.90100 19.36626 25857 ft 436 kts 126°
2026-04-24 20:20 52.88299 19.40629 25423 ft 433 kts 126°
2026-04-24 20:21 52.86508 19.44603 25005 ft 429 kts 126°
2026-04-24 20:21 52.84739 19.48526 24594 ft 426 kts 126°
2026-04-24 20:21 52.82973 19.52433 24174 ft 423 kts 126°
2026-04-24 20:21 52.81218 19.56308 23760 ft 421 kts 126°
2026-04-24 20:22 52.79494 19.60114 23352 ft 418 kts 126°
2026-04-24 20:22 52.77744 19.63969 22935 ft 415 kts 126°
2026-04-24 20:22 52.76043 19.67718 22517 ft 413 kts 127°
2026-04-24 20:22 52.74324 19.71490 22098 ft 410 kts 127°
2026-04-24 20:23 52.72618 19.75229 21676 ft 407 kts 127°
2026-04-24 20:23 52.70926 19.78936 21252 ft 405 kts 127°
2026-04-24 20:23 52.69332 19.82678 20839 ft 402 kts 122°
2026-04-24 20:23 52.67900 19.86597 20696 ft 397 kts 119°
2026-04-24 20:24 52.66991 19.89214 20442 ft 398 kts 118°
2026-04-24 20:24 52.65174 19.94483 19872 ft 395 kts 118°
2026-04-24 20:24 52.63826 19.98382 19452 ft 392 kts 118°
2026-04-24 20:24 52.62490 20.02233 19030 ft 390 kts 119°
2026-04-24 20:25 52.61145 20.06092 18608 ft 388 kts 119°
2026-04-24 20:25 52.59816 20.09896 18188 ft 386 kts 119°
2026-04-24 20:25 52.58487 20.13693 17774 ft 383 kts 119°
2026-04-24 20:25 52.57172 20.17442 17355 ft 381 kts 119°
2026-04-24 20:26 52.55844 20.21218 16936 ft 378 kts 119°
2026-04-24 20:26 52.54534 20.24940 16522 ft 376 kts 119°
2026-04-24 20:26 52.53239 20.28611 16124 ft 372 kts 118°
2026-04-24 20:26 52.51969 20.32208 15907 ft 362 kts 118°
2026-04-24 20:27 52.50736 20.35707 15732 ft 352 kts 118°
2026-04-24 20:27 52.49529 20.39174 15341 ft 349 kts 118°
2026-04-24 20:27 52.48338 20.42608 14981 ft 345 kts 118°
2026-04-24 20:27 52.47159 20.46003 14567 ft 342 kts 118°
2026-04-24 20:28 52.45983 20.49382 14209 ft 339 kts 118°
2026-04-24 20:28 52.44829 20.52691 13842 ft 336 kts 118°
2026-04-24 20:28 52.43684 20.55969 13487 ft 333 kts 118°
2026-04-24 20:28 52.42536 20.59245 13120 ft 330 kts 118°
2026-04-24 20:29 52.41779 20.61407 12877 ft 329 kts 118°
2026-04-24 20:29 52.40268 20.65707 12383 ft 326 kts 119°
2026-04-24 20:29 52.39148 20.68893 12018 ft 323 kts 119°
2026-04-24 20:29 52.38038 20.72046 11846 ft 316 kts 119°
2026-04-24 20:30 52.36950 20.75135 11868 ft 317 kts 119°
2026-04-24 20:30 52.35846 20.78266 11886 ft 317 kts 119°
2026-04-24 20:30 52.34740 20.81397 11826 ft 318 kts 119°
2026-04-24 20:30 52.33642 20.84504 11434 ft 318 kts 119°
2026-04-24 20:31 52.32536 20.87627 11054 ft 316 kts 120°
2026-04-24 20:31 52.31445 20.90704 10693 ft 314 kts 120°
2026-04-24 20:31 52.30360 20.93759 10339 ft 311 kts 120°
2026-04-24 20:31 52.29277 20.96804 9989 ft 308 kts 120°
2026-04-24 20:32 52.28216 20.99783 9643 ft 306 kts 120°
2026-04-24 20:32 52.26982 21.02601 9271 ft 303 kts 135°
2026-04-24 20:32 52.25316 21.04612 8921 ft 299 kts 152°
2026-04-24 20:32 52.23495 21.06185 8578 ft 296 kts 154°
2026-04-24 20:33 52.21653 21.07698 8231 ft 294 kts 155°
2026-04-24 20:33 52.19846 21.09200 7934 ft 290 kts 154°
2026-04-24 20:33 52.18103 21.10677 7835 ft 278 kts 154°
2026-04-24 20:33 52.16428 21.12111 7750 ft 266 kts 154°
2026-04-24 20:34 52.14798 21.13513 7613 ft 263 kts 154°
2026-04-24 20:34 52.13188 21.14918 7293 ft 262 kts 153°
2026-04-24 20:34 52.11596 21.16312 6999 ft 260 kts 154°
2026-04-24 20:34 52.10023 21.17689 6700 ft 257 kts 153°
2026-04-24 20:35 52.08443 21.19075 6425 ft 256 kts 154°
2026-04-24 20:35 52.06878 21.20446 6109 ft 255 kts 153°
2026-04-24 20:35 52.05324 21.21802 5813 ft 254 kts 154°
2026-04-24 20:35 52.03779 21.23149 5523 ft 253 kts 154°
2026-04-24 20:36 52.02245 21.24486 5247 ft 251 kts 153°
2026-04-24 20:36 52.00706 21.25828 4950 ft 250 kts 154°
2026-04-24 20:36 51.99175 21.27148 4954 ft 248 kts 154°
2026-04-24 20:36 51.97715 21.28403 5054 ft 227 kts 153°
2026-04-24 20:37 51.96380 21.29556 5053 ft 211 kts 154°
2026-04-24 20:37 51.95104 21.30655 5008 ft 208 kts 154°
2026-04-24 20:37 51.93827 21.31749 5031 ft 207 kts 154°
2026-04-24 20:37 51.92553 21.32846 5026 ft 207 kts 154°
2026-04-24 20:38 51.91282 21.33921 5043 ft 207 kts 156°
2026-04-24 20:38 51.89901 21.34347 5020 ft 199 kts 191°
2026-04-24 20:38 51.88653 21.33576 5014 ft 192 kts 220°
2026-04-24 20:38 51.87805 21.32005 5032 ft 185 kts 244°
2026-04-24 20:39 51.87213 21.30161 5074 ft 184 kts 248°
2026-04-24 20:39 51.86636 21.28297 5096 ft 185 kts 248°
2026-04-24 20:39 51.86192 21.26392 5053 ft 181 kts 264°
2026-04-24 20:39 51.86389 21.24450 5016 ft 174 kts 299°
2026-04-24 20:40 51.87133 21.22911 5042 ft 175 kts 315°
2026-04-24 20:40 51.88061 21.21676 5059 ft 175 kts 323°
2026-04-24 20:40 51.89108 21.20647 5077 ft 177 kts 329°
2026-04-24 20:40 51.90204 21.19719 5175 ft 175 kts 331°
2026-04-24 20:41 51.91291 21.18812 5206 ft 177 kts 330°
2026-04-24 20:41 51.92383 21.17888 5067 ft 177 kts 330°
2026-04-24 20:41 51.93457 21.16964 4847 ft 177 kts 329°
2026-04-24 20:41 51.94540 21.16027 4551 ft 174 kts 330°
2026-04-24 20:42 51.95596 21.15105 4303 ft 174 kts 329°
2026-04-24 20:42 51.96661 21.14169 4066 ft 173 kts 329°
2026-04-24 20:42 51.97706 21.13250 3835 ft 170 kts 329°
2026-04-24 20:42 51.98709 21.12369 3601 ft 155 kts 329°
2026-04-24 20:43 51.99635 21.11555 3451 ft 151 kts 329°
2026-04-24 20:43 52.00557 21.10743 3430 ft 150 kts 329°
2026-04-24 20:43 52.01470 21.09940 3371 ft 150 kts 329°
2026-04-24 20:43 52.02386 21.09131 3267 ft 150 kts 329°
2026-04-24 20:44 52.03295 21.08331 3040 ft 149 kts 329°
2026-04-24 20:44 52.04199 21.07534 2808 ft 148 kts 328°
2026-04-24 20:44 52.05104 21.06735 2589 ft 147 kts 328°
2026-04-24 20:44 52.06006 21.05953 2399 ft 146 kts 329°
2026-04-24 20:45 52.06907 21.05198 2223 ft 146 kts 329°
2026-04-24 20:45 52.07800 21.04457 2043 ft 145 kts 327°
2026-04-24 20:45 52.08670 21.03654 1849 ft 144 kts 325°
2026-04-24 20:45 52.09531 21.02820 1658 ft 144 kts 326°
2026-04-24 20:46 52.10417 21.02059 1470 ft 144 kts 329°
2026-04-24 20:46 52.11302 21.01338 1279 ft 143 kts 328°
2026-04-24 20:46 52.12179 21.00576 1107 ft 142 kts 326°
2026-04-24 20:46 52.13053 20.99811 904 ft 142 kts 327°
2026-04-24 20:47 52.13914 20.99056 715 ft 141 kts 326°
2026-04-24 20:47 52.14775 20.98283 527 ft 141 kts 326°
2026-04-24 20:47 52.15655 20.97518 370 ft 142 kts 327°
2026-04-24 20:47 52.16475 20.96783 334 ft 118 kts 333°
2026-04-24 20:48 52.17053 20.96285 335 ft 68 kts 332°
2026-04-24 20:48 52.17340 20.96081 338 ft 31 kts 349°
2026-04-24 20:48 52.17508 20.96062 339 ft 9 kts
2026-04-24 20:48 52.17525 20.96063 339 ft 0 kts
2026-04-24 20:49 52.17529 20.96064 339 ft 1 kts
2026-04-24 20:49 52.17569 20.96098 338 ft 11 kts 52°
2026-04-24 20:50 52.17561 20.96247 335 ft 17 kts 139°
2026-04-24 20:50 52.17459 20.96338 334 ft 11 kts 146°
2026-04-24 20:50 52.17448 20.96453 333 ft 12 kts 59°
2026-04-24 20:50 52.17458 20.96575 334 ft 11 kts 135°
2026-04-24 20:51 52.17397 20.96634 334 ft 10 kts 151°
2026-04-24 20:51 52.17346 20.96679 334 ft 3 kts 153°
2026-04-24 20:51 52.17325 20.96665 333 ft 5 kts 223°
2026-04-24 20:51 52.17302 20.96629 333 ft 2 kts 218°
2026-04-24 20:52 52.17287 20.96615 333 ft 1 kts 209°
2026-04-24 20:52 52.17279 20.96607 333 ft 0 kts 208°
2026-04-24 20:52 52.17278 20.96606 333 ft 0 kts 208°